TimePST,TemperatureF,Dew PointF,Humidity,Sea Level PressureIn,VisibilityMPH,Wind Direction,Wind SpeedMPH,Gust SpeedMPH,PrecipitationIn,Events,Conditions,WindDirDegrees,DateUTC
12:56 AM,48.0,46.0,93,30.10,10.0,South,5.8,-,N/A,,Overcast,190,2012-12-11 08:56:00
1:05 AM,48.2,46.4,93,30.09,10.0,South,6.9,-,N/A,,Overcast,190,2012-12-11 09:05:00
1:43 AM,48.2,46.4,93,30.06,10.0,SSW,6.9,-,N/A,,Overcast,200,2012-12-11 09:43:00
1:56 AM,48.0,45.0,89,30.05,10.0,South,5.8,-,N/A,,Overcast,170,2012-12-11 09:56:00
2:56 AM,46.9,45.0,93,30.01,10.0,South,5.8,-,N/A,,Overcast,180,2012-12-11 10:56:00
4:19 AM,46.4,44.6,93,29.97,10.0,South,6.9,-,N/A,,Overcast,180,2012-12-11 12:19:00
4:56 AM,46.0,44.1,93,29.95,10.0,SSE,6.9,-,N/A,,Overcast,160,2012-12-11 12:56:00
5:13 AM,46.4,44.6,93,29.93,10.0,South,9.2,-,N/A,,Overcast,170,2012-12-11 13:13:00
5:27 AM,46.4,44.6,93,29.92,10.0,SSE,9.2,-,N/A,,Overcast,150,2012-12-11 13:27:00
5:56 AM,46.0,42.1,86,29.91,10.0,South,8.1,-,N/A,,Scattered Clouds,180,2012-12-11 13:56:00
6:21 AM,46.4,42.8,87,29.91,10.0,South,9.2,-,N/A,,Mostly Cloudy,190,2012-12-11 14:21:00
6:56 AM,46.0,44.1,93,29.90,10.0,SSE,11.5,-,N/A,,Overcast,160,2012-12-11 14:56:00
7:39 AM,44.6,42.8,93,29.90,7.0,South,9.2,-,N/A,,Overcast,180,2012-12-11 15:39:00
7:56 AM,45.0,43.0,93,29.89,7.0,SE,6.9,-,0.00,,Overcast,140,2012-12-11 15:56:00
9:56 AM,45.0,44.1,97,29.86,10.0,South,8.1,-,0.00,,Overcast,170,2012-12-11 17:56:00
10:56 AM,46.0,42.1,86,29.80,10.0,South,16.1,-,0.00,Rain,Light Rain,170,2012-12-11 18:56:00
11:03 AM,44.6,42.8,93,29.79,10.0,South,15.0,-,0.00,Rain,Light Rain,170,2012-12-11 19:03:00
11:44 AM,44.6,42.8,93,29.79,7.0,South,15.0,-,0.02,Rain,Rain,180,2012-12-11 19:44:00
11:47 AM,44.6,42.8,93,29.79,7.0,South,16.1,-,0.03,Rain,Rain,180,2012-12-11 19:47:00
11:56 AM,45.0,43.0,93,29.79,10.0,South,17.3,-,0.03,Rain,Light Rain,180,2012-12-11 19:56:00
12:56 PM,45.0,43.0,93,29.75,10.0,South,19.6,25.3,0.04,Rain,Light Rain,180,2012-12-11 20:56:00
1:56 PM,45.0,42.1,90,29.70,10.0,SSE,11.5,-,0.02,Rain,Light Rain,160,2012-12-11 21:56:00
2:56 PM,45.0,42.1,90,29.66,10.0,SSE,17.3,26.5,0.09,Rain,Light Rain,160,2012-12-11 22:56:00
3:56 PM,44.1,43.0,96,29.65,6.0,SSE,15.0,-,0.01,Rain,Light Rain,160,2012-12-11 23:56:00
4:18 PM,44.6,42.8,93,29.64,7.0,SSE,11.5,20.7,0.01,Rain,Light Rain,160,2012-12-12 00:18:00
4:25 PM,44.6,42.8,93,29.64,3.0,SSE,12.7,19.6,0.01,Rain,Light Rain,160,2012-12-12 00:25:00
4:56 PM,44.1,42.1,93,29.64,7.0,SSE,12.7,-,0.01,,Overcast,160,2012-12-12 00:56:00
5:11 PM,44.6,42.8,93,29.63,6.0,South,13.8,20.7,N/A,,Overcast,180,2012-12-12 01:11:00
5:56 PM,45.0,44.1,97,29.64,10.0,South,16.1,21.9,N/A,,Overcast,180,2012-12-12 01:56:00
6:04 PM,44.6,42.8,93,29.64,10.0,South,13.8,21.9,0.00,Rain,Light Rain,180,2012-12-12 02:04:00
6:56 PM,45.0,44.1,97,29.65,10.0,South,8.1,-,0.02,,Overcast,190,2012-12-12 02:56:00
7:56 PM,45.0,43.0,93,29.66,10.0,South,5.8,-,0.02,,Overcast,190,2012-12-12 03:56:00
8:56 PM,45.0,43.0,93,29.67,10.0,South,3.5,-,0.00,Rain,Light Rain,190,2012-12-12 04:56:00
9:56 PM,43.0,41.0,93,29.68,10.0,WSW,5.8,-,0.00,,Mostly Cloudy,240,2012-12-12 05:56:00
10:56 PM,42.1,41.0,96,29.70,10.0,SSW,4.6,-,N/A,,Scattered Clouds,210,2012-12-12 06:56:00
11:56 PM,39.9,37.9,93,29.72,10.0,SW,4.6,-,N/A,,Scattered Clouds,220,2012-12-12 07:56:00